This demonstration page uses our WeatherBlox Daily Observations layout. Learn more.

Left ArrowRight Arrow

31.84235, -102.49876

Hourly Observations for July 17, 2022

Temp ( °F °C ) Dew Point ( °F °C ) Humidity (%) Winds ( mph kmh ) Pressure ( in mb ) Visibility ( mi km ) Precip ( " mm )
12:53 am 00:53 Clear 86 30 54 12.2 33 33 S 13 20 29.87 1011 10 16 0.00 0.00
1:53 am 01:53 Clear 84 28.9 55 12.8 37 37 S 9 15 29.87 1011 10 16 0.00 0.00
2:53 am 02:53 Clear 83 28.3 57 13.9 41 41 S 9 15 29.87 1012 10 16 0.00 0.00
3:53 am 03:53 Clear 82 27.8 59 15 46 46 S 9 15 29.86 1011 10 16 0.00 0.00
4:53 am 04:53 Clear 81 27.2 58 14.4 45 45 S 7 11 29.87 1012 10 16 0.00 0.00
5:53 am 05:53 Clear 79 26.1 57 13.9 47 47 SSW 6 9 29.87 1012 10 16 0.00 0.00
6:53 am 06:53 Clear 79 26.1 54 12.2 42 42 SSW 9 15 29.88 1012 10 16 0.00 0.00
7:53 am 07:53 Sunny 80 26.7 54 12.2 41 41 S 9 15 29.89 1012 10 16 0.00 0.00
8:53 am 08:53 Sunny 82 27.8 54 12.2 38 38 SSW 13 20 29.91 1013 9 14 0.00 0.00
9:53 am 09:53 Sunny 86 30 53 11.7 32 32 SSW 14 22 29.90 1013 9 14 0.00 0.00
10:53 am 10:53 Sunny 89 31.7 53 11.7 29 29 SSW 12 19 29.90 1013 9 14 0.00 0.00
11:53 am 11:53 Sunny 92 33.3 53 11.7 27 27 SW 9 15 29.90 1012 9 14 0.00 0.00
12:53 pm 12:53 Sunny 94 34.4 54 12.2 26 26 S 13 20 29.90 1013 10 16 0.00 0.00
1:53 pm 13:53 Sunny 96 35.6 55 12.8 25 25 E 8 13 29.88 1012 10 16 0.00 0.00
2:53 pm 14:53 Mostly Sunny 96 35.6 55 12.8 25 25 ESE 10 17 29.86 1011 10 16 0.00 0.00
3:53 pm 15:53 Mostly Sunny 97 36.1 54 12.2 24 24 SSE 10 17 29.85 1011 10 16 0.00 0.00
4:53 pm 16:53 Sunny 98 36.7 54 12.2 23 23 SE 13 20 29.83 1010 10 16 0.00 0.00
5:53 pm 17:53 Sunny 97 36.1 54 12.2 24 24 ESE 13 20 29.83 1010 10 16 0.00 0.00
6:53 pm 18:53 Sunny 96 35.6 53 11.7 23 23 SE 9 15 29.83 1010 10 16 0.00 0.00
7:53 pm 19:53 Sunny 95 35 53 11.7 24 24 SSE 8 13 29.82 1010 10 16 0.00 0.00
8:53 pm 20:53 Sunny 93 33.9 52 11.1 25 25 SSE 7 11 29.83 1010 10 16 0.00 0.00
9:53 pm 21:53 Clear 91 32.8 47 8.3 22 22 SSE 9 15 29.84 1011 10 16 0.00 0.00
10:53 pm 22:53 Clear 89 31.7 44 6.7 21 21 S 10 17 29.87 1012 10 16 0.00 0.00
11:53 pm 23:53 Clear 87 30.6 41 5 20 20 S 10 17 29.88 1012 10 16 0.00 0.00

Powered by AerisWeather